This is the latest recevied weather packets stored in our database for station/object WB4ROX. If no packets are shown the sender has not sent any weather packets the latest 10 day(s).
| Time | Temp. | Humidity | Pressure | Rain* | Wind** | Luminosity | Snow |
|---|---|---|---|---|---|---|---|
| 1777911690 | 12.22° C | 47% | 1019.6 hPa | 0 mm | - | 735 W/m² | - |
| 1777911386 | 12.22° C | 46% | 1019.4 hPa | 0 mm | - | 751 W/m² | - |
| 1777911085 | 12.22° C | 47% | 1019.4 hPa | 0 mm | - | 705 W/m² | - |
| 1777910782 | 12.22° C | 50% | 1019.7 hPa | 0 mm | - | 741 W/m² | - |
| 1777910478 | 11.67° C | 51% | 1019.8 hPa | 0 mm | - | 698 W/m² | - |
| 1777910175 | 11.11° C | 52% | 1019.8 hPa | 0 mm | - | 713 W/m² | - |
| 1777909872 | 11.11° C | 52% | 1020.1 hPa | 0 mm | - | 726 W/m² | - |
| 1777909569 | 11.11° C | 52% | 1020.3 hPa | 0 mm | - | 760 W/m² | - |
| 1777909266 | 10.56° C | 52% | 1020.4 hPa | 0 mm | - | 768 W/m² | - |
| 1777908964 | 10.56° C | 51% | 1020.1 hPa | 0 mm | - | 740 W/m² | - |
| 1777908662 | 10.56° C | 52% | 1019.8 hPa | 0 mm | - | 707 W/m² | - |
| 1777908358 | 10.56° C | 53% | 1020.3 hPa | 0 mm | - | 716 W/m² | - |
| 1777908055 | 10.56° C | 53% | 1020.1 hPa | 0 mm | - | 714 W/m² | - |
| 1777907750 | 10° C | 55% | 1020.3 hPa | 0 mm | - | 701 W/m² | - |
| 1777907445 | 9.44° C | 56% | 1020.4 hPa | 0 mm | - | 807 W/m² | - |
| 1777907142 | 10° C | 55% | 1020.5 hPa | 0 mm | - | 404 W/m² | - |
| 1777906840 | 9.44° C | 55% | 1020.7 hPa | 0 mm | - | 289 W/m² | - |
| 1777906537 | 10° C | 55% | 1020.8 hPa | 0 mm | - | 318 W/m² | - |
| 1777906232 | 10° C | 55% | 1020.6 hPa | 0 mm | - | 680 W/m² | - |
| 1777905929 | 9.44° C | 57% | 1020.5 hPa | 0 mm | - | 947 W/m² | - |
| 1777905626 | 9.44° C | 57% | 1020.6 hPa | 0 mm | - | 309 W/m² | - |
| 1777905323 | 9.44° C | 56% | 1020.4 hPa | 0 mm | - | 367 W/m² | - |
| 1777905021 | 9.44° C | 56% | 1020.6 hPa | 0 mm | - | 348 W/m² | - |
| 1777904718 | 9.44° C | 56% | 1020.5 hPa | 0 mm | - | 240 W/m² | - |
| 1777904415 | 9.44° C | 56% | 1020.6 hPa | 0 mm | - | 260 W/m² | - |
* Rain latest hour (hover to see other rain measurements)
** Current wind speed in m/s (hover to see current wind gust speed)